Location: Unspecified
(51.5147°N, 7.4673°E)
Time: 06:33:06
(UTC+01:00)

A-11 Canister half - Pass Details

Date: 19 February 2026
Orbit: 1524 x 1683 km, 47.3° (Epoch: 14 March)

Event Time Altitude Azimuth Distance (km) Brightness Sun altitude
Rises 21:50:47 0° 283° (WNW) 4,680 12.4 -36.5°
Reaches altitude 10° 21:53:57 10° 278° (W) 3,694 11.6 -36.9°
Enters shadow 22:01:50 45° 222° (SW) 1,985 9.5 -37.9°
